Location: Carson
(33.8314°N, 118.2820°W)
Time: 13:43:35
(UTC+00:00)

Cosmos 2084 - Pass Details

Date: 23 November 2020
Orbit: 558 x 624 km, 62.8° (Epoch: 21 January)

Event Time Altitude Azimuth Distance (km) Brightness Sun altitude
Exits shadow 13:46:49 - 333° (NNW) 2,521 6.3 -9.8°
Reaches altitude 10° 13:48:11 10° 336° (NNW) 1,988 5.8 -9.6°
Maximum altitude 13:52:39 62° 57° (ENE) 701 4.0 -8.7°
Drops below altitude 10° 13:57:07 10° 139° (SE) 1,986 7.2 -7.8°
Sets 13:59:25 0° 142° (SE) 2,887 8.1 -7.4°
